,,,PA_Meas_PMT16A,,PR_Meas_QMR101_102,,RH_Meas_QMH101,,SR_Meas_QMS101,,TA_Meas_QMH101,,GenWind,,GenWind,
date,time,status,PA,status,PR,status,RH,status,SR,status,TA,status,DirAvg,status,SpdAvg,
2010-11-30, 00:00:04,VALID,1001.01,VALID,0,VALID,89.113,VALID,0.100563,VALID,26.4492,VALID,35,VALID,0.785547,
2010-11-30, 00:01:04,VALID,1000.97,VALID,0,VALID,88.9756,VALID,0,VALID,26.4492,VALID,23,VALID,0.832031,
2010-11-30, 00:02:04,VALID,1000.99,VALID,0,VALID,88.8459,VALID,0,VALID,26.4277,VALID,26,VALID,0.778125,
2010-11-30, 00:03:04,VALID,1000.95,VALID,0,VALID,89.2884,VALID,0,VALID,26.3867,VALID,18,VALID,0.904688,
2010-11-30, 00:04:04,VALID,1000.93,VALID,0,VALID,89.3571,VALID,0,VALID,26.3693,VALID,43,VALID,0.744531,
2010-11-30, 00:05:04,VALID,1000.95,VALID,0,VALID,89.2426,VALID,0,VALID,26.3887,VALID,25,VALID,1.01836,
2010-11-30, 00:06:04,VALID,1000.96,VALID,0,VALID,88.4798,VALID,0,VALID,26.4861,VALID,25,VALID,0.946875,
2010-11-30, 00:07:04,VALID,1000.96,VALID,0,VALID,88.1746,VALID,0,VALID,26.5641,VALID,20,VALID,0.824219,
2010-11-30, 00:08:04,VALID,1000.96,VALID,0,VALID,87.6635,VALID,0,VALID,26.603,VALID,24,VALID,0.642578,
2010-11-30, 00:09:04,VALID,1000.93,VALID,0,VALID,87.5414,VALID,0,VALID,26.603,VALID,41,VALID,0.632422,
2010-11-30, 00:10:04,VALID,1000.95,VALID,0,VALID,87.694,VALID,0,VALID,26.603,VALID,20,VALID,0.617578,
2010-11-30, 00:11:04,VALID,1000.97,VALID,0,VALID,87.7932,VALID,0,VALID,26.603,VALID,20,VALID,0.344141,
2010-11-30, 00:12:04,VALID,1000.96,VALID,0,VALID,87.6177,VALID,0,VALID,26.5835,VALID,21,VALID,0.598047,
2010-11-30, 00:13:04,VALID,1000.96,VALID,0,VALID,87.8008,VALID,0,VALID,26.5855,VALID,20,VALID,0.7375,
2010-11-30, 00:14:04,VALID,1000.92,VALID,0,VALID,87.8618,VALID,0,VALID,26.5835,VALID,21,VALID,0.510156,
2010-11-30, 00:15:04,VALID,1000.91,VALID,0,VALID,88.3653,VALID,0,VALID,26.5446,VALID,21,VALID,0.264844,
2010-11-30, 00:16:04,VALID,1000.9,VALID,0,VALID,88.7162,VALID,0,VALID,26.5056,VALID,21,VALID,0.353906,
2010-11-30, 00:17:04,VALID,1000.87,VALID,0,VALID,88.6018,VALID,0,VALID,26.4472,VALID,21,VALID,0.704687,
2010-11-30, 00:18:04,VALID,1000.88,VALID,0,VALID,88.6552,VALID,0,VALID,26.4667,VALID,20,VALID,0.148828,
2010-11-30, 00:19:04,VALID,1000.87,VALID,0,VALID,89.2274,VALID,0,VALID,26.4472,VALID,286,VALID,0.402734,
2010-11-30, 00:20:04,VALID,1000.87,VALID,0,VALID,89.9521,VALID,0,VALID,26.4277,VALID,280,VALID,0.0648438,
2010-11-30, 00:21:04,VALID,1000.86,VALID,0,VALID,90.6158,VALID,0,VALID,26.3498,VALID,280,VALID,0.05,
2010-11-30, 00:22:04,VALID,1000.85,VALID,0,VALID,91.0431,VALID,0.100563,VALID,26.2524,VALID,280,VALID,0,
2010-11-30, 00:23:04,VALID,1000.87,VALID,0,VALID,91.2567,VALID,0.100563,VALID,26.155,VALID,261,VALID,0.491797,
2010-11-30, 00:24:04,VALID,1000.85,VALID,0,VALID,91.8746,VALID,0,VALID,26.0187,VALID,260,VALID,0.210156,
2010-11-30, 00:25:04,VALID,1000.89,VALID,0,VALID,92.4925,VALID,0,VALID,25.9427,VALID,260,VALID,0.0863281,
2010-11-30, 00:26:04,VALID,1000.89,VALID,0,VALID,93.0723,VALID,0,VALID,25.8668,VALID,260,VALID,0,
2010-11-30, 00:27:04,VALID,1000.84,VALID,0,VALID,93.5072,VALID,0,VALID,25.7869,VALID,260,VALID,0,
2010-11-30, 00:28:04,VALID,1000.83,VALID,0,VALID,93.7666,VALID,0,VALID,25.7071,VALID,260,VALID,0,
2010-11-30, 00:29:04,VALID,1000.79,VALID,0,VALID,94.2701,VALID,0,VALID,25.6506,VALID,260,VALID,0.460547,
2010-11-30, 00:30:04,VALID,1000.78,VALID,0,VALID,94.4532,VALID,0,VALID,25.5123,VALID,260,VALID,0.267578,
2010-11-30, 00:31:04,VALID,1000.75,VALID,0,VALID,95.1093,VALID,0,VALID,25.4169,VALID,261,VALID,0.621094,
2010-11-30, 00:32:04,VALID,1000.73,VALID,0,VALID,96.3451,VALID,0,VALID,25.339,VALID,6,VALID,0.323047,
2010-11-30, 00:33:04,VALID,1000.74,VALID,0,VALID,98.1913,VALID,0,VALID,25.2806,VALID,6,VALID,0.344531,
2010-11-30, 00:34:04,VALID,1000.72,VALID,0,VALID,102.387,VALID,0,VALID,25.2027,VALID,6,VALID,0.461328,
2010-11-30, 00:35:04,VALID,1000.75,VALID,0,INVALID,110.657,VALID,0,VALID,25.1442,VALID,6,VALID,0.0699219,
2010-11-30, 00:36:04,VALID,1000.76,VALID,0,INVALID,126.952,VALID,0,VALID,25.1053,VALID,6,VALID,0.318359,
2010-11-30, 00:37:04,VALID,1000.75,VALID,0,INVALID,158.322,VALID,0,VALID,25.0469,VALID,6,VALID,0,
2010-11-30, 00:38:04,VALID,1000.8,VALID,0,INVALID,163.586,VALID,0,VALID,25.0293,VALID,6,VALID,0.321875,
2010-11-30, 00:39:04,VALID,1000.8,VALID,0,INVALID,163.609,VALID,0,VALID,24.9495,VALID,6,VALID,0.04375,
2010-11-30, 00:40:04,VALID,1000.79,VALID,0,INVALID,163.624,VALID,0,VALID,24.9106,VALID,6,VALID,0,
2010-11-30, 00:41:04,VALID,1000.8,VALID,0,INVALID,163.632,VALID,0,VALID,24.8911,VALID,6,VALID,0.0390625,
2010-11-30, 00:42:04,VALID,1000.77,VALID,0,INVALID,163.632,VALID,0,VALID,24.8522,VALID,6,VALID,0.348047,
2010-11-30, 00:43:04,VALID,1000.77,VALID,0,INVALID,163.601,VALID,0,VALID,24.7937,VALID,6,VALID,0.212109,
2010-11-30, 00:44:04,VALID,1000.74,VALID,0,INVALID,163.639,VALID,0,VALID,24.7743,VALID,6,VALID,0.419531,
2010-11-30, 00:45:04,VALID,1000.74,VALID,0,INVALID,163.655,VALID,0,VALID,24.7159,VALID,6,VALID,0.556641,
2010-11-30, 00:46:04,VALID,1000.71,VALID,0,INVALID,163.639,VALID,0,VALID,24.675,VALID,6,VALID,0.457812,
2010-11-30, 00:47:04,VALID,1000.7,VALID,0,INVALID,163.632,VALID,0,VALID,24.6574,VALID,5,VALID,0.775,
2010-11-30, 00:48:04,VALID,1000.71,VALID,0,INVALID,163.655,VALID,0,VALID,24.6185,VALID,1,VALID,0.667969,
2010-11-30, 00:49:04,VALID,1000.69,VALID,0,INVALID,163.647,VALID,0,VALID,24.5388,VALID,355,VALID,0.615234,
2010-11-30, 00:50:04,VALID,1000.69,VALID,0,INVALID,163.655,VALID,0,VALID,24.5406,VALID,334,VALID,0.296094,
2010-11-30, 00:51:04,VALID,1000.67,VALID,0,INVALID,163.632,VALID,0,VALID,24.5388,VALID,334,VALID,0,
2010-11-30, 00:52:04,VALID,1000.69,VALID,0,INVALID,163.678,VALID,0,VALID,24.5193,VALID,334,VALID,0.338281,
2010-11-30, 00:53:04,VALID,1000.7,VALID,0,INVALID,163.662,VALID,0,VALID,24.4998,VALID,334,VALID,0.337109,
2010-11-30, 00:54:04,VALID,1000.67,VALID,0,INVALID,163.662,VALID,0,VALID,24.5406,VALID,334,VALID,0.197656,
2010-11-30, 00:55:04,VALID,1000.66,VALID,0,INVALID,163.662,VALID,0,VALID,24.5193,VALID,334,VALID,0.0015625,
2010-11-30, 00:56:04,VALID,1000.64,VALID,0,INVALID,163.632,VALID,0,VALID,24.5406,VALID,334,VALID,0.003125,
2010-11-30, 00:57:04,VALID,1000.65,VALID,0,INVALID,163.632,VALID,0,VALID,24.5406,VALID,1,VALID,0.369531,
2010-11-30, 00:58:04,VALID,1000.62,VALID,0,INVALID,163.624,VALID,0,VALID,24.4822,VALID,11,VALID,0.657031,
2010-11-30, 00:59:04,VALID,1000.58,VALID,0,INVALID,163.662,VALID,0,VALID,24.4433,VALID,12,VALID,0.510938,
2010-11-30, 01:00:04,VALID,1000.56,VALID,0,INVALID,163.662,VALID,0,VALID,24.4433,VALID,11,VALID,0.392188,
2010-11-30, 01:01:04,VALID,1000.54,VALID,0,INVALID,163.685,VALID,0,VALID,24.4238,VALID,12,VALID,0.535547,
2010-11-30, 01:02:04,VALID,1000.52,VALID,0,INVALID,163.655,VALID,0,VALID,24.4238,VALID,12,VALID,0.504297,
2010-11-30, 01:03:04,VALID,1000.52,VALID,0,INVALID,163.678,VALID,0,VALID,24.4238,VALID,12,VALID,0.432031,
2010-11-30, 01:04:04,VALID,1000.52,VALID,0,INVALID,163.67,VALID,0,VALID,24.4238,VALID,11,VALID,0.357812,
2010-11-30, 01:05:04,VALID,1000.5,VALID,0,INVALID,163.678,VALID,0,VALID,24.4433,VALID,11,VALID,0.0125,
2010-11-30, 01:06:04,VALID,1000.41,VALID,0,INVALID,163.662,VALID,0,VALID,24.4433,VALID,11,VALID,0.382813,
2010-11-30, 01:07:04,VALID,1000.48,VALID,0,INVALID,163.678,VALID,0,VALID,24.4043,VALID,11,VALID,0.597656,
2010-11-30, 01:08:04,VALID,1000.5,VALID,0,INVALID,163.67,VALID,0,VALID,24.4025,VALID,11,VALID,0.457812,
2010-11-30, 01:09:04,VALID,1000.5,VALID,0,INVALID,163.67,VALID,0,VALID,24.383,VALID,11,VALID,0.353125,
2010-11-30, 01:10:04,VALID,1000.51,VALID,0,INVALID,163.639,VALID,0,VALID,24.3636,VALID,12,VALID,0.596484,
2010-11-30, 01:11:04,VALID,1000.51,VALID,0,INVALID,163.67,VALID,0,VALID,24.3246,VALID,14,VALID,0.584766,
2010-11-30, 01:12:04,VALID,1000.52,VALID,0,INVALID,163.67,VALID,0,VALID,24.3265,VALID,14,VALID,0.420312,
2010-11-30, 01:13:04,VALID,1000.49,VALID,0,INVALID,163.639,VALID,0.100563,VALID,24.3246,VALID,355,VALID,0.00585938,
2010-11-30, 01:14:04,VALID,1000.48,VALID,0,INVALID,163.662,VALID,0,VALID,24.3265,VALID,355,VALID,0.551172,
2010-11-30, 01:15:04,VALID,1000.46,VALID,0,INVALID,163.662,VALID,0,VALID,24.3052,VALID,4,VALID,0.723437,
2010-11-30, 01:16:04,VALID,1000.45,VALID,0,INVALID,163.662,VALID,0,VALID,24.3246,VALID,12,VALID,0.583984,
2010-11-30, 01:17:04,VALID,1000.43,VALID,0,INVALID,163.67,VALID,0,VALID,24.3052,VALID,12,VALID,0.424219,
2010-11-30, 01:18:04,VALID,1000.4,VALID,0,INVALID,163.655,VALID,0,VALID,24.307,VALID,12,VALID,0.679297,
2010-11-30, 01:19:04,VALID,1000.38,VALID,0,INVALID,163.678,VALID,0,VALID,24.2681,VALID,10,VALID,0.621094,
2010-11-30, 01:20:04,VALID,1000.38,VALID,0,INVALID,163.678,VALID,0,VALID,24.2662,VALID,10,VALID,0.324219,
2010-11-30, 01:21:04,VALID,1000.35,VALID,0,INVALID,163.67,VALID,0,VALID,24.2681,VALID,10,VALID,0.188672,
2010-11-30, 01:22:04,VALID,1000.38,VALID,0,INVALID,163.678,VALID,0,VALID,24.2273,VALID,10,VALID,0.54375,
2010-11-30, 01:23:04,VALID,1000.37,VALID,0,INVALID,163.701,VALID,0,VALID,24.2486,VALID,10,VALID,0.247266,
2010-11-30, 01:24:04,VALID,1000.36,VALID,0,INVALID,163.662,VALID,0,VALID,24.2681,VALID,10,VALID,0.146094,
2010-11-30, 01:25:04,VALID,1000.42,VALID,0,INVALID,163.678,VALID,0,VALID,24.2681,VALID,10,VALID,0.341797,
2010-11-30, 01:26:04,VALID,1000.36,VALID,0,INVALID,163.67,VALID,0,VALID,24.2291,VALID,10,VALID,0.399219,
2010-11-30, 01:27:04,VALID,1000.4,VALID,0,INVALID,163.685,VALID,0,VALID,24.2291,VALID,10,VALID,0,
2010-11-30, 01:28:04,VALID,1000.36,VALID,0,INVALID,163.693,VALID,0,VALID,24.2291,VALID,9,VALID,0.560547,
2010-11-30, 01:29:04,VALID,1000.35,VALID,0,INVALID,163.678,VALID,0,VALID,24.2291,VALID,8,VALID,0.555859,
2010-11-30, 01:30:04,VALID,1000.37,VALID,0,INVALID,163.685,VALID,0,VALID,24.2291,VALID,8,VALID,0.601563,
2010-11-30, 01:31:04,VALID,1000.36,VALID,0,INVALID,163.662,VALID,0,VALID,24.2291,VALID,8,VALID,0.605469,
2010-11-30, 01:32:04,VALID,1000.34,VALID,0,INVALID,163.662,VALID,0,VALID,24.2486,VALID,7,VALID,0.64375,
2010-11-30, 01:33:04,VALID,1000.34,VALID,0,INVALID,163.662,VALID,0,VALID,24.2468,VALID,7,VALID,0.708594,
2010-11-30, 01:34:04,VALID,1000.33,VALID,0,INVALID,163.685,VALID,0,VALID,24.2468,VALID,7,VALID,0.405078,
2010-11-30, 01:35:04,VALID,1000.32,VALID,0,INVALID,163.678,VALID,0,VALID,24.2681,VALID,7,VALID,0.212109,
2010-11-30, 01:36:04,VALID,1000.31,VALID,0,INVALID,163.67,VALID,0,VALID,24.2486,VALID,7,VALID,0.00585938,
2010-11-30, 01:37:04,VALID,1000.3,VALID,0,INVALID,163.685,VALID,0,VALID,24.2468,VALID,7,VALID,0,
2010-11-30, 01:38:04,VALID,1000.26,VALID,0,INVALID,163.662,VALID,0,VALID,24.2273,VALID,7,VALID,0,
2010-11-30, 01:39:04,VALID,1000.24,VALID,0,INVALID,163.678,VALID,0,VALID,24.2078,VALID,7,VALID,0,
2010-11-30, 01:40:04,VALID,1000.24,VALID,0,INVALID,163.685,VALID,0,VALID,24.2097,VALID,7,VALID,0,
2010-11-30, 01:41:04,VALID,1000.18,VALID,0,INVALID,163.647,VALID,0,VALID,24.2078,VALID,7,VALID,0.0875,
2010-11-30, 01:42:04,VALID,1000.16,VALID,0,INVALID,163.655,VALID,0,VALID,24.1884,VALID,7,VALID,0.556641,
2010-11-30, 01:43:04,VALID,1000.15,VALID,0,INVALID,163.67,VALID,0,VALID,24.1494,VALID,7,VALID,0.353906,
2010-11-30, 01:44:04,VALID,1000.15,VALID,0,INVALID,163.67,VALID,0,VALID,24.1513,VALID,7,VALID,0.463672,
2010-11-30, 01:45:04,VALID,1000.16,VALID,0,INVALID,163.678,VALID,0,VALID,24.1513,VALID,7,VALID,0.440234,
2010-11-30, 01:46:04,VALID,1000.13,VALID,0,INVALID,163.678,VALID,0,VALID,24.1105,VALID,7,VALID,0.283984,
2010-11-30, 01:47:04,VALID,1000.12,VALID,0,INVALID,163.685,VALID,0,VALID,24.1318,VALID,7,VALID,0.339844,
2010-11-30, 01:48:04,VALID,1000.12,VALID,0,INVALID,163.701,VALID,0,VALID,24.091,VALID,7,VALID,0.206641,
2010-11-30, 01:49:04,VALID,1000.08,VALID,0,INVALID,163.67,VALID,0,VALID,24.0929,VALID,7,VALID,0.00117188,
2010-11-30, 01:50:04,VALID,1000.08,VALID,0,INVALID,163.685,VALID,0,VALID,24.0929,VALID,7,VALID,0.249219,
2010-11-30, 01:51:04,VALID,1000.06,VALID,0,INVALID,163.678,VALID,0,VALID,24.0716,VALID,7,VALID,0.313672,
2010-11-30, 01:52:04,VALID,1000.09,VALID,0,INVALID,163.693,VALID,0,VALID,24.0716,VALID,7,VALID,0.112109,
2010-11-30, 01:53:04,VALID,1000.06,VALID,0,INVALID,163.693,VALID,0,VALID,24.0521,VALID,7,VALID,0.5625,
2010-11-30, 01:54:04,VALID,1000.03,VALID,0,INVALID,163.685,VALID,0,VALID,24.0132,VALID,7,VALID,0.428125,
2010-11-30, 01:55:04,VALID,1000.03,VALID,0,INVALID,163.678,VALID,0,VALID,24.0132,VALID,7,VALID,0.336328,
2010-11-30, 01:56:04,VALID,999.989,VALID,0,INVALID,163.685,VALID,0,VALID,23.9937,VALID,7,VALID,0.367188,
2010-11-30, 01:57:04,VALID,999.988,VALID,0,INVALID,163.678,VALID,0,VALID,24.015,VALID,7,VALID,0.327734,
2010-11-30, 01:58:04,VALID,999.973,VALID,0,INVALID,163.685,VALID,0,VALID,24.015,VALID,7,VALID,0.196094,
2010-11-30, 01:59:04,VALID,999.971,VALID,0,INVALID,163.701,VALID,0,VALID,24.0345,VALID,7,VALID,0.346875,
2010-11-30, 02:00:04,VALID,999.967,VALID,0,INVALID,163.678,VALID,0,VALID,23.9937,VALID,7,VALID,0.419922,
2010-11-30, 02:01:04,VALID,999.965,VALID,0,INVALID,163.662,VALID,0,VALID,23.9937,VALID,7,VALID,0.502344,
2010-11-30, 02:02:04,VALID,999.959,VALID,0,INVALID,163.678,VALID,0,VALID,23.9742,VALID,7,VALID,0.411719,
2010-11-30, 02:03:04,VALID,999.951,VALID,0,INVALID,163.739,VALID,0,VALID,23.9566,VALID,7,VALID,0.408594,
2010-11-30, 02:04:04,VALID,999.945,VALID,0,INVALID,163.685,VALID,0,VALID,23.8946,VALID,7,VALID,0.289844,
2010-11-30, 02:05:04,VALID,999.932,VALID,0,INVALID,163.685,VALID,0,VALID,23.9371,VALID,7,VALID,0.171094,
2010-11-30, 02:06:04,VALID,999.926,VALID,0,INVALID,163.685,VALID,0,VALID,23.9353,VALID,7,VALID,0.179688,
2010-11-30, 02:07:04,VALID,999.907,VALID,0,INVALID,163.708,VALID,0,VALID,23.9353,VALID,7,VALID,0.0425781,
2010-11-30, 02:08:04,VALID,999.884,VALID,0,INVALID,163.693,VALID,0,VALID,23.914,VALID,7,VALID,0,
2010-11-30, 02:09:04,VALID,999.895,VALID,0,INVALID,163.701,VALID,0,VALID,23.9566,VALID,7,VALID,0.349609,
2010-11-30, 02:10:04,VALID,999.865,VALID,0,INVALID,163.685,VALID,0,VALID,23.9159,VALID,7,VALID,0.560938,
2010-11-30, 02:11:04,VALID,999.849,VALID,0,INVALID,163.685,VALID,0,VALID,23.9159,VALID,7,VALID,0.38125,
2010-11-30, 02:12:04,VALID,999.847,VALID,0,INVALID,163.708,VALID,0,VALID,23.9566,VALID,5,VALID,0.276563,
2010-11-30, 02:13:04,VALID,999.867,VALID,0,INVALID,163.685,VALID,0,VALID,23.9548,VALID,5,VALID,0.602734,
2010-11-30, 02:14:04,VALID,999.847,VALID,0,INVALID,163.685,VALID,0,VALID,23.9159,VALID,5,VALID,0.604297,
2010-11-30, 02:15:04,VALID,999.846,VALID,0,INVALID,163.708,VALID,0,VALID,23.9159,VALID,5,VALID,0.232422,
2010-11-30, 02:16:04,VALID,999.837,VALID,0,INVALID,163.708,VALID,0,VALID,23.9159,VALID,5,VALID,0,
2010-11-30, 02:17:04,VALID,999.856,VALID,0,INVALID,163.678,VALID,0,VALID,23.9371,VALID,5,VALID,0.142969,
2010-11-30, 02:18:04,VALID,999.819,VALID,0,INVALID,163.685,VALID,0,VALID,23.9159,VALID,5,VALID,0.13125,
2010-11-30, 02:19:04,VALID,999.821,VALID,0,INVALID,163.716,VALID,0,VALID,23.8964,VALID,5,VALID,0,
2010-11-30, 02:20:04,VALID,999.838,VALID,0,INVALID,163.693,VALID,0,VALID,23.8964,VALID,5,VALID,0,
2010-11-30, 02:21:04,VALID,999.809,VALID,0,INVALID,163.716,VALID,0,VALID,23.8964,VALID,5,VALID,0.00507812,
2010-11-30, 02:22:04,VALID,999.81,VALID,0,INVALID,163.693,VALID,0,VALID,23.8769,VALID,5,VALID,0.433203,
2010-11-30, 02:23:04,VALID,999.808,VALID,0,INVALID,163.693,VALID,0,VALID,23.8575,VALID,5,VALID,0.257422,
2010-11-30, 02:24:04,VALID,999.825,VALID,0,INVALID,163.716,VALID,0,VALID,23.838,VALID,5,VALID,0.13125,
2010-11-30, 02:25:04,VALID,999.778,VALID,0,INVALID,163.708,VALID,0,VALID,23.8167,VALID,5,VALID,0.182422,
2010-11-30, 02:26:04,VALID,999.784,VALID,0,INVALID,163.693,VALID,0,VALID,23.838,VALID,3,VALID,0.625781,
2010-11-30, 02:27:04,VALID,999.785,VALID,0,INVALID,163.693,VALID,0,VALID,23.8575,VALID,360,VALID,0.294922,
2010-11-30, 02:28:04,VALID,999.783,VALID,0,INVALID,163.701,VALID,0,VALID,23.8556,VALID,360,VALID,0.0179687,
2010-11-30, 02:29:04,VALID,999.781,VALID,0,INVALID,163.693,VALID,0,VALID,23.8751,VALID,360,VALID,0.0226563,
2010-11-30, 02:30:04,VALID,999.775,VALID,0,INVALID,163.723,VALID,0,VALID,23.8769,VALID,360,VALID,0.61875,
2010-11-30, 02:31:04,VALID,999.777,VALID,0,INVALID,163.708,VALID,0,VALID,23.8964,VALID,360,VALID,0.314453,
2010-11-30, 02:32:04,VALID,999.771,VALID,0,INVALID,163.701,VALID,0,VALID,23.9159,VALID,360,VALID,0.427734,
2010-11-30, 02:33:04,VALID,999.754,VALID,0,INVALID,163.708,VALID,0,VALID,23.9159,VALID,2,VALID,0.476563,
2010-11-30, 02:34:04,VALID,999.748,VALID,0,INVALID,163.701,VALID,0,VALID,23.8769,VALID,3,VALID,0,
2010-11-30, 02:35:04,VALID,999.756,VALID,0,INVALID,163.701,VALID,0,VALID,23.8769,VALID,3,VALID,0.0742188,
2010-11-30, 02:36:04,VALID,999.743,VALID,0,INVALID,163.685,VALID,0,VALID,23.8575,VALID,3,VALID,0.16875,
2010-11-30, 02:37:04,VALID,999.715,VALID,0,INVALID,163.693,VALID,0,VALID,23.8575,VALID,3,VALID,0.471094,
2010-11-30, 02:38:04,VALID,999.723,VALID,0,INVALID,163.678,VALID,0.100563,VALID,23.8575,VALID,3,VALID,0.442969,
2010-11-30, 02:39:04,VALID,999.711,VALID,0,INVALID,163.693,VALID,0,VALID,23.8964,VALID,3,VALID,0.479688,
2010-11-30, 02:40:04,VALID,999.668,VALID,0,INVALID,163.693,VALID,0,VALID,23.8769,VALID,3,VALID,0.315234,
2010-11-30, 02:41:04,VALID,999.681,VALID,0,INVALID,163.693,VALID,0,VALID,23.8769,VALID,3,VALID,0.326953,
2010-11-30, 02:42:04,VALID,999.682,VALID,0,INVALID,163.701,VALID,0,VALID,23.8787,VALID,3,VALID,0.266406,
2010-11-30, 02:43:04,VALID,999.684,VALID,0,INVALID,163.716,VALID,0,VALID,23.8964,VALID,3,VALID,0.336719,
2010-11-30, 02:44:04,VALID,999.663,VALID,0,INVALID,163.708,VALID,0,VALID,23.8769,VALID,3,VALID,0.36875,
2010-11-30, 02:45:04,VALID,999.665,VALID,0,INVALID,163.723,VALID,0,VALID,23.838,VALID,3,VALID,0.198047,
2010-11-30, 02:46:04,VALID,999.654,VALID,0,INVALID,163.678,VALID,0,VALID,23.8593,VALID,3,VALID,0,
2010-11-30, 02:47:04,VALID,999.636,VALID,0,INVALID,163.731,VALID,0,VALID,23.8575,VALID,3,VALID,0.321484,
2010-11-30, 02:48:04,VALID,999.645,VALID,0,INVALID,163.693,VALID,0,VALID,23.8185,VALID,3,VALID,0.25625,
2010-11-30, 02:49:04,VALID,999.628,VALID,0,INVALID,163.701,VALID,0,VALID,23.7796,VALID,3,VALID,0.342578,
2010-11-30, 02:50:04,VALID,999.652,VALID,0,INVALID,163.708,VALID,0,VALID,23.8009,VALID,3,VALID,0.3125,
2010-11-30, 02:51:04,VALID,999.611,VALID,0,INVALID,163.731,VALID,0,VALID,23.7796,VALID,3,VALID,0.332422,
2010-11-30, 02:52:04,VALID,999.601,VALID,0,INVALID,163.701,VALID,0,VALID,23.7601,VALID,3,VALID,0.425391,
2010-11-30, 02:53:04,VALID,999.577,VALID,0,INVALID,163.708,VALID,0,VALID,23.7407,VALID,3,VALID,0.507031,
2010-11-30, 02:54:04,VALID,999.603,VALID,0,INVALID,163.716,VALID,0,VALID,23.7601,VALID,3,VALID,0.517187,
2010-11-30, 02:55:04,VALID,999.562,VALID,0,INVALID,163.708,VALID,0,VALID,23.7601,VALID,3,VALID,0.474219,
2010-11-30, 02:56:04,VALID,999.524,VALID,0,INVALID,163.708,VALID,0,VALID,23.7407,VALID,3,VALID,0.388672,
2010-11-30, 02:57:04,VALID,999.497,VALID,0,INVALID,163.716,VALID,0,VALID,23.7017,VALID,3,VALID,0.551172,
2010-11-30, 02:58:04,VALID,999.497,VALID,0,INVALID,163.723,VALID,0,VALID,23.7,VALID,3,VALID,0.466016,
2010-11-30, 02:59:04,VALID,999.493,VALID,0,INVALID,163.708,VALID,0,VALID,23.6823,VALID,3,VALID,0.535156,
2010-11-30, 03:00:04,VALID,999.478,VALID,0,INVALID,163.716,VALID,0,VALID,23.723,VALID,3,VALID,0.255859,
2010-11-30, 03:01:04,VALID,999.501,VALID,0,INVALID,163.731,VALID,0,VALID,23.7425,VALID,3,VALID,0.240625,
2010-11-30, 03:02:04,VALID,999.495,VALID,0,INVALID,163.716,VALID,0,VALID,23.7017,VALID,3,VALID,0.34375,
2010-11-30, 03:03:04,VALID,999.526,VALID,0,INVALID,163.723,VALID,0,VALID,23.6823,VALID,3,VALID,0.236719,
2010-11-30, 03:04:04,VALID,999.509,VALID,0,INVALID,163.716,VALID,0,VALID,23.723,VALID,3,VALID,0.296094,
2010-11-30, 03:05:04,VALID,999.504,VALID,0,INVALID,163.708,VALID,0,VALID,23.7619,VALID,3,VALID,0.177344,
2010-11-30, 03:06:04,VALID,999.518,VALID,0,INVALID,163.716,VALID,0,VALID,23.7601,VALID,3,VALID,0.371094,
2010-11-30, 03:07:04,VALID,999.517,VALID,0,INVALID,163.716,VALID,0,VALID,23.7601,VALID,3,VALID,0.375781,
2010-11-30, 03:08:04,VALID,999.523,VALID,0,INVALID,163.723,VALID,0,VALID,23.7814,VALID,3,VALID,0.359375,
2010-11-30, 03:09:04,VALID,999.523,VALID,0,INVALID,163.723,VALID,0,VALID,23.7407,VALID,3,VALID,0.575391,
2010-11-30, 03:10:04,VALID,999.517,VALID,0,INVALID,163.693,VALID,0,VALID,23.7212,VALID,3,VALID,0.487891,
2010-11-30, 03:11:04,VALID,999.519,VALID,0,INVALID,163.716,VALID,0,VALID,23.6805,VALID,3,VALID,0.351172,
2010-11-30, 03:12:04,VALID,999.526,VALID,0,INVALID,163.739,VALID,0,VALID,23.7017,VALID,3,VALID,0.501172,
2010-11-30, 03:13:04,VALID,999.513,VALID,0,INVALID,163.723,VALID,0,VALID,23.7017,VALID,3,VALID,0.438672,
2010-11-30, 03:14:04,VALID,999.511,VALID,0,INVALID,163.723,VALID,0.100563,VALID,23.661,VALID,3,VALID,0.445703,
2010-11-30, 03:15:04,VALID,999.501,VALID,0,INVALID,163.723,VALID,0,VALID,23.661,VALID,3,VALID,0.416016,
2010-11-30, 03:16:04,VALID,999.527,VALID,0,INVALID,163.739,VALID,0,VALID,23.6805,VALID,3,VALID,0.503125,
2010-11-30, 03:17:05,VALID,999.516,VALID,0,INVALID,163.731,VALID,0,VALID,23.7017,VALID,3,VALID,0.3375,
2010-11-30, 03:18:05,VALID,999.499,VALID,0,INVALID,163.708,VALID,0,VALID,23.7017,VALID,3,VALID,0.363281,
2010-11-30, 03:19:05,VALID,999.5,VALID,0,INVALID,163.708,VALID,0,VALID,23.7017,VALID,3,VALID,0.407031,
2010-11-30, 03:20:05,VALID,999.49,VALID,0,INVALID,163.723,VALID,0,VALID,23.6823,VALID,3,VALID,0.300391,
2010-11-30, 03:21:05,VALID,999.483,VALID,0,INVALID,163.723,VALID,0,VALID,23.6823,VALID,3,VALID,0.317187,
2010-11-30, 03:22:05,VALID,999.465,VALID,0,INVALID,163.723,VALID,0,VALID,23.661,VALID,3,VALID,0.283203,
2010-11-30, 03:23:05,VALID,999.474,VALID,0,INVALID,163.716,VALID,0,VALID,23.6823,VALID,3,VALID,0.199219,
2010-11-30, 03:24:05,VALID,999.481,VALID,0,INVALID,163.693,VALID,0,VALID,23.6823,VALID,3,VALID,0.392578,
2010-11-30, 03:25:05,VALID,999.514,VALID,0,INVALID,163.716,VALID,0,VALID,23.6823,VALID,3,VALID,0.274219,
2010-11-30, 03:26:05,VALID,999.494,VALID,0,INVALID,163.739,VALID,0,VALID,23.6823,VALID,3,VALID,0.255859,
2010-11-30, 03:27:05,VALID,999.521,VALID,0,INVALID,163.693,VALID,0,VALID,23.6823,VALID,3,VALID,0.310937,
2010-11-30, 03:28:05,VALID,999.531,VALID,0,INVALID,163.701,VALID,0,VALID,23.6628,VALID,3,VALID,0.603125,
2010-11-30, 03:29:05,VALID,999.531,VALID,0,INVALID,163.716,VALID,0.100563,VALID,23.6221,VALID,3,VALID,0.602344,
2010-11-30, 03:30:05,VALID,999.555,VALID,0,INVALID,163.716,VALID,0,VALID,23.6026,VALID,3,VALID,0.562891,
2010-11-30, 03:31:05,VALID,999.542,VALID,0,INVALID,163.701,VALID,0,VALID,23.6239,VALID,3,VALID,0.453516,
2010-11-30, 03:32:05,VALID,999.521,VALID,0,INVALID,163.701,VALID,0,VALID,23.6416,VALID,3,VALID,0.447656,
2010-11-30, 03:33:05,VALID,999.503,VALID,0,INVALID,163.716,VALID,0,VALID,23.6823,VALID,3,VALID,0.419922,
2010-11-30, 03:34:05,VALID,999.482,VALID,0,INVALID,163.739,VALID,0,VALID,23.6628,VALID,3,VALID,0.408984,
2010-11-30, 03:35:05,VALID,999.451,VALID,0,INVALID,163.731,VALID,0.100563,VALID,23.6628,VALID,3,VALID,0.459766,
2010-11-30, 03:36:05,VALID,999.482,VALID,0,INVALID,163.716,VALID,0,VALID,23.6416,VALID,3,VALID,0.466016,
2010-11-30, 03:37:05,VALID,999.496,VALID,0,INVALID,163.739,VALID,0,VALID,23.6434,VALID,3,VALID,0.435937,
2010-11-30, 03:38:05,VALID,999.503,VALID,0,INVALID,163.693,VALID,0,VALID,23.6823,VALID,3,VALID,0.394922,
2010-11-30, 03:39:05,VALID,999.481,VALID,0,INVALID,163.708,VALID,0,VALID,23.6628,VALID,3,VALID,0.543359,
2010-11-30, 03:40:05,VALID,999.483,VALID,0,INVALID,163.746,VALID,0,VALID,23.6026,VALID,3,VALID,0.650781,
2010-11-30, 03:41:05,VALID,999.491,VALID,0,INVALID,163.762,VALID,0,VALID,23.6044,VALID,2,VALID,0.494141,
2010-11-30, 03:42:05,VALID,999.501,VALID,0,INVALID,163.716,VALID,0,VALID,23.6026,VALID,2,VALID,0.510938,
2010-11-30, 03:43:05,VALID,999.5,VALID,0,INVALID,163.701,VALID,0,VALID,23.6026,VALID,2,VALID,0.451562,
2010-11-30, 03:44:05,VALID,999.526,VALID,0,INVALID,163.708,VALID,0,VALID,23.6221,VALID,2,VALID,0.398828,